Tracking 30074 objects as of 14-Jan-2025
HD Live streaming from Space Station
objects crossing your sky now

STARLINK-30366

Track STARLINK-30366 now!
10-day predictions
STARLINK-30366 is classified as:


NORAD ID: 57749
Int'l Code: 2023-131T
Perigee: 565.4 km
Apogee: 567.1 km
Inclination: 43.0 °
Period: 95.8 minutes
Semi major axis: 6937 km
RCS: Unknown
Launch date: September 1, 2023
Source: United States (US)
Launch site: AIR FORCE EASTERN TEST RANGE (AFETR)
Your satellite tracking list
Your tracking list is empty




NASA's NSSDC Master Catalog

Two Line Element Set (TLE):
1 57749U 23131T   25013.17972570  .00001447  00000-0  12217-3 0  9993
2 57749  43.0031 296.2896 0001221 268.8973  91.1729 15.02531023 76673
Source of the keplerian elements: AFSPC